M I D A S
Marine Information and Data Acquisition System
Tripno 2217 of the Zeeleeuw from 2011-12-01 08:20:22 to 2011-12-02 14:58:56
Back to CruiseResearch ActivitiesStationsMapUnderway DataData graphs

EquipmentUnitsComments
TimeDGPSUTC
LatitudeDGPSDM.mWGS84
LongitudeDGPSDM.mWGS84
SpeedMeteo Stationm/sRelative wind speed
DirectionMeteo StationdegRelative wind direction
TemperatureMeteo Stationdeg CelciusAir temperature
PressureMeteo StationPaAtmospheric pressure
HumidityMeteo Station%Relative humidity
Missing or incorrect values are displayed as -999
Metereological data collected by the RV Zeeleeuw from 2011-12-01 08:17:04 to 2011-12-02 15:09:33
                                                                                    Next 1000 lines
Time Latitude Longitude Speed Direction Temperature Pressure Humidity
2011-12-01 08:17:14 51°13.636 2°56.013 5 11 10.3 101030 53
2011-12-01 08:17:19 51°13.637 2°56.009 5 12 10.3 101030 53
2011-12-01 08:17:24 51°13.638 2°56.005 5.3 12 10.3 101030 53
2011-12-01 08:17:29 51°13.639 2°55.999 4.2 14 10.3 101030 52
2011-12-01 08:17:35 51°13.64 2°55.992 4.3 9 10.3 101030 52
2011-12-01 08:17:40 51°13.641 2°55.986 3.7 8 10.3 101030 53
2011-12-01 08:17:46 51°13.642 2°55.979 3.6 12 10.3 101030 53
2011-12-01 08:17:51 51°13.643 2°55.974 3.4 10 10.3 101040 52
2011-12-01 08:17:57 51°13.645 2°55.966 3.1 11 10.3 101040 52
2011-12-01 08:18:02 51°13.647 2°55.96 2.5 354 10.3 101040 53
2011-12-01 08:18:07 51°13.648 2°55.953 2.1 12 10.3 101040 53
2011-12-01 08:18:13 51°13.65 2°55.944 2.1 18 10.3 101040 53
2011-12-01 08:18:18 51°13.651 2°55.937 2 18 10.3 101040 53
2011-12-01 08:18:22 51°13.653 2°55.931 1.5 19 10.3 101040 52
2011-12-01 08:18:27 51°13.654 2°55.923 1.1 14 10.3 101040 52
2011-12-01 08:18:32 51°13.656 2°55.916 1.7 19 10.3 101040 53
2011-12-01 08:18:38 51°13.658 2°55.906 2.7 19 10.3 101040 53
2011-12-01 08:18:42 51°13.659 2°55.9 4.8 14 10.3 101040 52
2011-12-01 08:18:47 51°13.661 2°55.891 3.4 20 10.3 101040 52
2011-12-01 08:18:52 51°13.663 2°55.883 4.8 33 10.3 101040 52
2011-12-01 08:18:58 51°13.665 2°55.872 3.6 39 10.3 101040 52
2011-12-01 08:19:03 51°13.668 2°55.864 3.1 28 10.3 101040 52
2011-12-01 08:19:07 51°13.67 2°55.857 1.8 38 10.3 101040 52
2011-12-01 08:19:12 51°13.672 2°55.848 2.4 36 10.3 101040 53
2011-12-01 08:19:18 51°13.676 2°55.838 2.7 31 10.3 101040 53
2011-12-01 08:19:23 51°13.68 2°55.829 2.5 80 10.3 101040 53
2011-12-01 08:19:27 51°13.683 2°55.822 1.4 38 10.3 101040 53
2011-12-01 08:19:32 51°13.686 2°55.813 1.7 81 10.3 101040 52
2011-12-01 08:19:37 51°13.69 2°55.804 2.7 44 10.3 101040 52
2011-12-01 08:19:42 51°13.694 2°55.795 3.6 26 10.3 101040 52
2011-12-01 08:19:47 51°13.698 2°55.786 3.1 21 10.3 101040 52
2011-12-01 08:19:52 51°13.703 2°55.778 4 23 10.3 101040 52
2011-12-01 08:19:57 51°13.707 2°55.769 5.2 17 10.3 101040 52
2011-12-01 08:20:02 51°13.712 2°55.76 3 10 10.3 101040 53
2011-12-01 08:20:07 51°13.717 2°55.752 2 19 10.3 101040 53
2011-12-01 08:20:12 51°13.722 2°55.743 3.3 13 10.3 101040 52
2011-12-01 08:20:17 51°13.728 2°55.734 3.6 22 10.3 101040 52
2011-12-01 08:20:22 51°13.733 2°55.726 2.7 19 10.3 101040 54
2011-12-01 08:20:27 51°13.739 2°55.718 2.8 22 10.3 101040 54
2011-12-01 08:20:33 51°13.746 2°55.707 2.3 12 10.3 101040 53
2011-12-01 08:20:38 51°13.752 2°55.699 2.3 20 10.3 101040 53
2011-12-01 08:20:42 51°13.756 2°55.693 1.3 15 10.3 101040 52
2011-12-01 08:20:47 51°13.763 2°55.685 0.6 356 10.3 101040 52
2011-12-01 08:20:53 51°13.771 2°55.676 2.7 14 10.3 101040 51
2011-12-01 08:20:58 51°13.779 2°55.671 3.5 27 10.3 101040 51
2011-12-01 08:21:02 51°13.784 2°55.666 4.5 23 10.3 101040 53
2011-12-01 08:21:07 51°13.791 2°55.659 3.7 32 10.3 101040 53
2011-12-01 08:21:12 51°13.798 2°55.653 1.7 286 10.3 101040 53
2011-12-01 08:21:18 51°13.807 2°55.647 0.4 325 10.3 101040 53
2011-12-01 08:21:23 51°13.815 2°55.643 0.1 356 10.4 101050 53
2011-12-01 08:21:27 51°13.821 2°55.639 2 335 10.4 101050 53
2011-12-01 08:21:32 51°13.829 2°55.635 1.8 281 10.3 101040 53
2011-12-01 08:21:37 51°13.837 2°55.632 1.2 327 10.3 101040 53
2011-12-01 08:21:43 51°13.847 2°55.63 1.4 277 10.3 101040 53
2011-12-01 08:21:47 51°13.853 2°55.629 2 335 10.3 101040 53
2011-12-01 08:21:52 51°13.861 2°55.627 2.1 279 10.3 101050 52
2011-12-01 08:21:57 51°13.87 2°55.627 1.8 330 10.3 101050 52
2011-12-01 08:22:02 51°13.878 2°55.626 1.3 347 10.3 101040 53
2011-12-01 08:22:07 51°13.886 2°55.627 1.4 336 10.3 101040 53
2011-12-01 08:22:12 51°13.894 2°55.628 0.2 282 10.4 101040 52
2011-12-01 08:22:17 51°13.902 2°55.629 0.1 323 10.4 101040 52
2011-12-01 08:22:22 51°13.909 2°55.631 0.1 282 10.4 101040 53
2011-12-01 08:22:27 51°13.916 2°55.634 2.3 319 10.4 101040 53
2011-12-01 08:22:32 51°13.923 2°55.636 0.2 282 10.4 101040 53
2011-12-01 08:22:38 51°13.93 2°55.64 0.1 322 10.4 101040 53
2011-12-01 08:22:42 51°13.935 2°55.642 2.3 277 10.4 101040 53
2011-12-01 08:22:47 51°13.941 2°55.646 2.9 31 10.4 101040 53
2011-12-01 08:22:53 51°13.947 2°55.65 6.8 278 10.4 101040 53
2011-12-01 08:22:58 51°13.951 2°55.653 6.2 323 10.4 101040 53
2011-12-01 08:23:02 51°13.955 2°55.656 6 324 10.4 101040 53
2011-12-01 08:23:07 51°13.958 2°55.659 4.7 35 10.4 101040 53
2011-12-01 08:23:11 51°13.961 2°55.661 5.3 280 10.4 101050 52
2011-12-01 08:23:16 51°13.964 2°55.664 5.5 30 10.4 101050 52
2011-12-01 08:23:21 51°13.966 2°55.667 6.5 279 10.4 101050 52
2011-12-01 08:23:26 51°13.967 2°55.669 5.9 237 10.4 101050 52
2011-12-01 08:23:31 51°13.968 2°55.671 4.5 279 10.4 101040 52
2011-12-01 08:23:36 51°13.969 2°55.671 4.3 246 10.4 101040 52
2011-12-01 08:23:42 51°13.97 2°55.672 4.2 278 10.4 101040 53
2011-12-01 08:23:47 51°13.971 2°55.671 4 249 10.4 101040 53
2011-12-01 08:23:52 51°13.971 2°55.67 4.9 283 10.4 101050 53
2011-12-01 08:23:57 51°13.971 2°55.668 5 242 10.4 101050 53
2011-12-01 08:24:02 51°13.971 2°55.665 5.7 22 10.4 101040 53
2011-12-01 08:24:07 51°13.972 2°55.661 4.8 247 10.4 101040 53
2011-12-01 08:24:11 51°13.972 2°55.657 4.3 281 10.4 101040 53
2011-12-01 08:24:17 51°13.974 2°55.651 4.6 259 10.4 101040 53
2011-12-01 08:24:22 51°13.975 2°55.646 4.4 284 10.4 101040 53
2011-12-01 08:24:27 51°13.977 2°55.639 4 265 10.4 101040 53
2011-12-01 08:24:32 51°13.98 2°55.633 4.5 279 10.4 101050 52
2011-12-01 08:24:37 51°13.983 2°55.626 5.6 260 10.4 101050 52
2011-12-01 08:24:41 51°13.986 2°55.62 3.2 279 10.4 101040 53
2011-12-01 08:24:47 51°13.992 2°55.609 4.4 253 10.4 101040 53
2011-12-01 08:24:52 51°13.997 2°55.6 4.7 284 10.4 101040 53
2011-12-01 08:24:57 51°14.003 2°55.59 2.7 261 10.4 101040 53
2011-12-01 08:25:02 51°14.009 2°55.58 4.1 262 10.4 101050 53
2011-12-01 08:25:07 51°14.016 2°55.569 3.3 264 10.4 101050 53
2011-12-01 08:25:11 51°14.022 2°55.56 4.6 80 10.4 101050 52
2011-12-01 08:25:16 51°14.03 2°55.549 4.4 270 10.4 101050 52
2011-12-01 08:25:21 51°14.039 2°55.538 2.5 286 10.4 101040 53
2011-12-01 08:25:26 51°14.048 2°55.527 2.4 264 10.4 101040 53
2011-12-01 08:25:31 51°14.057 2°55.515 3 265 10.4 101050 53
2011-12-01 08:25:35 51°14.065 2°55.506 2.9 263 10.4 101050 53
2011-12-01 08:25:40 51°14.075 2°55.496 3 280 10.4 101050 53
2011-12-01 08:25:45 51°14.085 2°55.484 2.2 246 10.4 101050 53
2011-12-01 08:25:50 51°14.094 2°55.473 2.1 280 10.4 101050 52
2011-12-01 08:25:55 51°14.105 2°55.462 3.5 30 10.4 101050 52
2011-12-01 08:26:00 51°14.115 2°55.452 3.4 20 10.4 101050 53
2011-12-01 08:26:05 51°14.125 2°55.441 3.1 240 10.4 101050 53
2011-12-01 08:26:10 51°14.135 2°55.431 3.5 286 10.4 101040 51
2011-12-01 08:26:15 51°14.145 2°55.42 3.6 261 10.4 101040 51
2011-12-01 08:26:21 51°14.156 2°55.408 2.6 281 10.4 101050 53
2011-12-01 08:26:26 51°14.166 2°55.398 0.9 38 10.4 101050 53
2011-12-01 08:26:31 51°14.176 2°55.388 3.5 285 10.4 101050 53
2011-12-01 08:26:35 51°14.184 2°55.379 2.5 263 10.4 101050 53
2011-12-01 08:26:40 51°14.194 2°55.369 3.1 281 10.4 101040 53
2011-12-01 08:26:46 51°14.206 2°55.356 2.9 244 10.4 101040 53
2011-12-01 08:26:51 51°14.216 2°55.346 2.1 280 10.4 101050 52
2011-12-01 08:26:56 51°14.226 2°55.336 1.7 264 10.4 101050 52
2011-12-01 08:27:02 51°14.238 2°55.324 1 250 10.4 101040 52
2011-12-01 08:27:07 51°14.248 2°55.314 0.9 251 10.4 101040 52
2011-12-01 08:27:12 51°14.258 2°55.304 2.6 281 10.4 101040 52
2011-12-01 08:27:17 51°14.268 2°55.294 1.7 244 10.4 101040 52
2011-12-01 08:27:22 51°14.278 2°55.284 0.7 287 10.4 101040 52
2011-12-01 08:27:27 51°14.289 2°55.274 1.4 315 10.4 101040 52
2011-12-01 08:27:32 51°14.3 2°55.263 3.2 279 10.4 101050 52
2011-12-01 08:27:38 51°14.313 2°55.25 3.1 249 10.4 101050 52
2011-12-01 08:27:43 51°14.324 2°55.24 4.2 284 10.4 101050 53
2011-12-01 08:27:47 51°14.333 2°55.232 3.6 244 10.4 101050 53
2011-12-01 08:27:52 51°14.344 2°55.221 3.2 282 10.4 101040 52
2011-12-01 08:27:58 51°14.358 2°55.208 3.7 237 10.4 101040 52
2011-12-01 08:28:03 51°14.37 2°55.197 4.2 28 10.4 101040 53
2011-12-01 08:28:07 51°14.38 2°55.188 2.9 260 10.4 101040 53
2011-12-01 08:28:12 51°14.391 2°55.176 2.1 285 10.4 101040 52
2011-12-01 08:28:17 51°14.404 2°55.164 2.1 251 10.4 101040 52
2011-12-01 08:28:22 51°14.416 2°55.152 1.6 279 10.4 101040 52
2011-12-01 08:28:27 51°14.428 2°55.14 2 256 10.4 101040 52
2011-12-01 08:28:32 51°14.441 2°55.127 3.3 284 10.4 101040 51
2011-12-01 08:28:37 51°14.453 2°55.115 3.1 245 10.4 101040 51
2011-12-01 08:28:42 51°14.466 2°55.101 3.3 280 10.4 101040 53
2011-12-01 08:28:47 51°14.478 2°55.089 3.6 249 10.4 101040 53
2011-12-01 08:28:51 51°14.489 2°55.078 2.6 281 10.4 101040 51
2011-12-01 08:28:56 51°14.502 2°55.065 3.9 251 10.4 101040 51
2011-12-01 08:29:01 51°14.515 2°55.051 3.2 246 10.4 101040 51
2011-12-01 08:29:06 51°14.529 2°55.037 3.9 248 10.4 101040 51
2011-12-01 08:29:11 51°14.542 2°55.023 4.6 283 10.4 101040 53
2011-12-01 08:29:15 51°14.553 2°55.012 5.6 251 10.4 101040 53
2011-12-01 08:29:20 51°14.567 2°54.998 4.2 286 10.4 101040 53
2011-12-01 08:29:25 51°14.581 2°54.984 5.4 255 10.4 101040 53
2011-12-01 08:29:30 51°14.595 2°54.97 5.6 279 10.4 101040 52
2011-12-01 08:29:35 51°14.61 2°54.956 5.3 255 10.4 101040 52
2011-12-01 08:29:39 51°14.621 2°54.944 2.2 286 10.4 101020 52
2011-12-01 08:29:44 51°14.635 2°54.93 5 256 10.4 101020 52
2011-12-01 08:29:49 51°14.65 2°54.915 4.8 285 10.4 101030 52
2011-12-01 08:29:54 51°14.664 2°54.901 4.7 249 10.4 101030 52
2011-12-01 08:29:59 51°14.679 2°54.886 4.2 255 10.5 101040 53
2011-12-01 08:30:04 51°14.693 2°54.871 5.8 256 10.5 101040 53
2011-12-01 08:30:09 51°14.708 2°54.857 6.9 281 10.4 101030 53
2011-12-01 08:30:15 51°14.725 2°54.84 8.2 257 10.4 101030 53
2011-12-01 08:30:19 51°14.737 2°54.828 5.9 279 10.4 101030 53
2011-12-01 08:30:24 51°14.751 2°54.813 6.5 262 10.4 101030 53
2011-12-01 08:30:29 51°14.766 2°54.798 5.5 279 10.4 101040 53
2011-12-01 08:30:34 51°14.78 2°54.783 5.8 261 10.4 101040 53
2011-12-01 08:30:39 51°14.795 2°54.768 6.1 279 10.4 101020 52
2011-12-01 08:30:44 51°14.809 2°54.751 6 256 10.4 101020 52
2011-12-01 08:30:49 51°14.823 2°54.736 5.5 280 10.4 101030 53
2011-12-01 08:30:54 51°14.837 2°54.72 7 259 10.4 101030 53
2011-12-01 08:30:59 51°14.851 2°54.704 6.6 257 10.4 101020 53
2011-12-01 08:31:04 51°14.865 2°54.687 5.9 255 10.4 101020 53
2011-12-01 08:31:09 51°14.879 2°54.672 7.1 278 10.4 101030 53
2011-12-01 08:31:14 51°14.893 2°54.655 7.8 257 10.4 101030 53
2011-12-01 08:31:19 51°14.906 2°54.637 6.1 278 10.4 101020 53
2011-12-01 08:31:24 51°14.919 2°54.62 7 254 10.4 101020 53
2011-12-01 08:31:29 51°14.933 2°54.602 6.1 286 10.4 101030 51
2011-12-01 08:31:34 51°14.946 2°54.585 6.2 255 10.4 101030 51
2011-12-01 08:31:39 51°14.959 2°54.567 5.2 280 10.4 101020 51
2011-12-01 08:31:44 51°14.972 2°54.549 5.4 249 10.4 101020 51
2011-12-01 08:31:49 51°14.985 2°54.532 5.6 280 10.4 101030 51
2011-12-01 08:31:54 51°14.999 2°54.514 6.1 254 10.4 101030 51
2011-12-01 08:31:59 51°15.012 2°54.497 6.1 257 10.4 101020 53
2011-12-01 08:32:04 51°15.026 2°54.48 6.4 262 10.4 101020 53
2011-12-01 08:32:09 51°15.039 2°54.464 7.2 260 10.4 101020 53
2011-12-01 08:32:14 51°15.054 2°54.448 5.8 256 10.4 101020 53
2011-12-01 08:32:19 51°15.068 2°54.433 5.8 280 10.4 101020 51
2011-12-01 08:32:24 51°15.082 2°54.417 5.7 258 10.4 101020 51
2011-12-01 08:32:29 51°15.096 2°54.403 5.3 284 10.4 101020 52
2011-12-01 08:32:34 51°15.11 2°54.387 5.3 255 10.4 101020 52
2011-12-01 08:32:39 51°15.124 2°54.371 6.8 281 10.4 101020 51
2011-12-01 08:32:44 51°15.137 2°54.354 6 256 10.4 101020 51
2011-12-01 08:32:49 51°15.151 2°54.337 6.3 284 10.4 101030 53
2011-12-01 08:32:54 51°15.165 2°54.321 7 253 10.4 101030 53
2011-12-01 08:32:59 51°15.179 2°54.305 8 259 10.4 101020 52
2011-12-01 08:33:04 51°15.193 2°54.289 10.3 259 10.4 101020 52
2011-12-01 08:33:09 51°15.206 2°54.272 9.7 285 10.4 101020 51
2011-12-01 08:33:14 51°15.221 2°54.257 10.2 261 10.4 101020 51
2011-12-01 08:33:19 51°15.235 2°54.241 9.5 280 10.4 101030 52
2011-12-01 08:33:24 51°15.249 2°54.226 9.2 257 10.4 101030 52
2011-12-01 08:33:29 51°15.264 2°54.211 9.5 277 10.4 101020 52
2011-12-01 08:33:34 51°15.278 2°54.196 7.7 262 10.4 101020 52
2011-12-01 08:33:39 51°15.293 2°54.181 8.7 285 10.4 101030 52
2011-12-01 08:33:44 51°15.307 2°54.165 8.9 258 10.4 101030 52
2011-12-01 08:33:49 51°15.321 2°54.149 8.8 286 10.4 101030 53
2011-12-01 08:33:54 51°15.334 2°54.132 7.5 259 10.4 101030 53
2011-12-01 08:33:59 51°15.348 2°54.116 7.6 257 10.4 101020 53
2011-12-01 08:34:04 51°15.362 2°54.099 7.1 259 10.4 101020 53
2011-12-01 08:34:09 51°15.375 2°54.083 9.3 279 10.4 101020 52
2011-12-01 08:34:14 51°15.389 2°54.066 7.7 257 10.4 101020 52
2011-12-01 08:34:19 51°15.403 2°54.049 8.9 282 10.4 101020 53
2011-12-01 08:34:24 51°15.417 2°54.033 6.7 247 10.4 101020 53
2011-12-01 08:34:29 51°15.431 2°54.016 6.4 256 10.4 101020 53
2011-12-01 08:34:34 51°15.444 2°53.999 7.3 251 10.4 101020 53
2011-12-01 08:34:39 51°15.458 2°53.983 8.7 280 10.4 101020 52
2011-12-01 08:34:44 51°15.472 2°53.966 9.6 257 10.4 101020 52
2011-12-01 08:34:49 51°15.485 2°53.949 7 280 10.5 101020 53
2011-12-01 08:34:54 51°15.499 2°53.933 7.7 261 10.5 101020 53
2011-12-01 08:34:59 51°15.513 2°53.916 7 263 10.5 101020 53
2011-12-01 08:35:04 51°15.527 2°53.899 7.4 260 10.5 101020 53
2011-12-01 08:35:09 51°15.54 2°53.882 8 280 10.5 101020 53
2011-12-01 08:35:14 51°15.553 2°53.865 7.8 256 10.5 101020 53
2011-12-01 08:35:19 51°15.566 2°53.847 8.2 282 10.5 101030 53
2011-12-01 08:35:24 51°15.58 2°53.829 7.3 251 10.5 101030 53
2011-12-01 08:35:29 51°15.593 2°53.811 7.9 284 10.5 101020 53
2011-12-01 08:35:34 51°15.606 2°53.793 9 255 10.5 101020 53
2011-12-01 08:35:39 51°15.619 2°53.775 9.2 285 10.5 101020 53
2011-12-01 08:35:44 51°15.632 2°53.757 10.8 256 10.5 101020 53
2011-12-01 08:35:49 51°15.645 2°53.738 8.4 280 10.5 101020 52
2011-12-01 08:35:54 51°15.657 2°53.72 10.6 260 10.5 101020 52
2011-12-01 08:35:59 51°15.67 2°53.702 8.8 262 10.5 101010 53
2011-12-01 08:36:03 51°15.681 2°53.688 8.4 261 10.5 101010 53
2011-12-01 08:36:09 51°15.697 2°53.668 7.5 283 10.5 101010 53
2011-12-01 08:36:14 51°15.711 2°53.651 7.8 251 10.5 101010 53
2011-12-01 08:36:19 51°15.724 2°53.635 8.3 279 10.5 101020 53
2011-12-01 08:36:24 51°15.738 2°53.619 6.1 262 10.5 101020 53
2011-12-01 08:36:29 51°15.753 2°53.604 5.9 277 10.5 101020 53
2011-12-01 08:36:34 51°15.768 2°53.59 4 266 10.5 101020 53
2011-12-01 08:36:39 51°15.782 2°53.577 4.9 283 10.5 101020 53
2011-12-01 08:36:44 51°15.798 2°53.564 5.4 260 10.5 101020 53
2011-12-01 08:36:49 51°15.813 2°53.552 6.8 262 10.5 101010 52
2011-12-01 08:36:54 51°15.829 2°53.54 6.4 265 10.5 101010 52
2011-12-01 08:36:59 51°15.844 2°53.529 7.4 260 10.5 101010 52
2011-12-01 08:37:04 51°15.86 2°53.518 4.1 270 10.5 101010 52
2011-12-01 08:37:09 51°15.876 2°53.508 3.8 284 10.5 101020 53
2011-12-01 08:37:14 51°15.892 2°53.498 4.9 268 10.5 101020 53
2011-12-01 08:37:19 51°15.908 2°53.488 3.3 280 10.5 101020 52
2011-12-01 08:37:24 51°15.925 2°53.478 5.4 263 10.5 101020 52
2011-12-01 08:37:29 51°15.941 2°53.469 3.3 279 10.5 101020 53
2011-12-01 08:37:34 51°15.957 2°53.459 5.9 270 10.5 101020 53
2011-12-01 08:37:39 51°15.973 2°53.45 4.7 279 10.5 101010 53
2011-12-01 08:37:44 51°15.989 2°53.44 4 266 10.5 101010 53
2011-12-01 08:37:49 51°16.005 2°53.429 4.2 284 10.5 101020 53
2011-12-01 08:37:54 51°16.021 2°53.419 4.1 264 10.5 101020 53
2011-12-01 08:37:59 51°16.036 2°53.408 4.1 266 10.5 101020 53
2011-12-01 08:38:04 51°16.052 2°53.397 2.4 265 10.5 101020 53
2011-12-01 08:38:09 51°16.068 2°53.386 1.7 282 10.6 101020 53
2011-12-01 08:38:14 51°16.084 2°53.374 1 263 10.6 101020 53
2011-12-01 08:38:19 51°16.099 2°53.362 2.8 280 10.6 101010 52
2011-12-01 08:38:23 51°16.112 2°53.352 3.4 261 10.6 101010 52
2011-12-01 08:38:29 51°16.131 2°53.339 1.4 279 10.5 101020 52
2011-12-01 08:38:34 51°16.146 2°53.327 2.3 264 10.5 101020 52
2011-12-01 08:38:39 51°16.162 2°53.315 0.6 281 10.6 101010 52
2011-12-01 08:38:44 51°16.178 2°53.304 6.2 267 10.6 101010 52
2011-12-01 08:38:49 51°16.194 2°53.293 4.6 281 10.6 101010 53
2011-12-01 08:38:54 51°16.21 2°53.283 5.3 263 10.6 101010 53
2011-12-01 08:38:59 51°16.226 2°53.273 4 268 10.6 101010 53
2011-12-01 08:39:04 51°16.242 2°53.262 5.4 269 10.6 101010 53
2011-12-01 08:39:09 51°16.258 2°53.252 4.9 279 10.6 101020 53
2011-12-01 08:39:14 51°16.274 2°53.241 4.7 264 10.6 101020 53
2011-12-01 08:39:19 51°16.289 2°53.231 5.1 285 10.6 101020 53
2011-12-01 08:39:24 51°16.305 2°53.221 4.4 259 10.6 101020 53
2011-12-01 08:39:29 51°16.321 2°53.21 5.2 278 10.6 101020 52
2011-12-01 08:39:34 51°16.337 2°53.199 4.5 263 10.6 101020 52
2011-12-01 08:39:39 51°16.353 2°53.188 4.7 285 10.6 101010 53
2011-12-01 08:39:44 51°16.369 2°53.177 4.7 264 10.6 101010 53
2011-12-01 08:39:49 51°16.385 2°53.165 4.5 281 10.6 101000 52
2011-12-01 08:39:54 51°16.4 2°53.153 3.6 266 10.6 101000 52
2011-12-01 08:39:59 51°16.416 2°53.142 3.8 264 10.6 101010 52
2011-12-01 08:40:04 51°16.432 2°53.13 5.5 263 10.6 101010 52
2011-12-01 08:40:09 51°16.448 2°53.119 4.7 285 10.6 101010 53
2011-12-01 08:40:14 51°16.463 2°53.107 4.7 265 10.6 101010 53
2011-12-01 08:40:19 51°16.479 2°53.095 4.5 283 10.6 101010 52
2011-12-01 08:40:24 51°16.495 2°53.084 5.9 261 10.6 101010 52
2011-12-01 08:40:29 51°16.511 2°53.072 5.4 285 10.6 101000 52
2011-12-01 08:40:34 51°16.526 2°53.06 5.6 260 10.6 101000 52
2011-12-01 08:40:39 51°16.542 2°53.049 4.4 281 10.6 101010 53
2011-12-01 08:40:44 51°16.558 2°53.036 5.1 263 10.6 101010 53
2011-12-01 08:40:49 51°16.573 2°53.023 5.2 285 10.6 101020 52
2011-12-01 08:40:54 51°16.588 2°53.01 7.1 262 10.6 101020 52
2011-12-01 08:40:59 51°16.604 2°52.998 4.3 265 10.6 101010 52
2011-12-01 08:41:04 51°16.619 2°52.985 5.8 261 10.6 101010 52
2011-12-01 08:41:09 51°16.635 2°52.974 5.2 283 10.6 101010 52
2011-12-01 08:41:14 51°16.65 2°52.962 4.2 263 10.6 101010 52
2011-12-01 08:41:19 51°16.666 2°52.951 5.7 279 10.6 101010 53
2011-12-01 08:41:24 51°16.682 2°52.94 6 267 10.6 101010 53
2011-12-01 08:41:29 51°16.698 2°52.93 4.7 264 10.6 101010 52
2011-12-01 08:41:35 51°16.717 2°52.916 4.7 267 10.6 101010 52
2011-12-01 08:41:39 51°16.73 2°52.908 5.3 279 10.6 101010 53
2011-12-01 08:41:44 51°16.746 2°52.898 3.9 262 10.6 101010 53
2011-12-01 08:41:49 51°16.762 2°52.888 4.8 281 10.6 101020 52
2011-12-01 08:41:54 51°16.778 2°52.877 6 268 10.6 101020 52
2011-12-01 08:41:59 51°16.794 2°52.867 4.5 265 10.6 101010 53
2011-12-01 08:42:04 51°16.809 2°52.856 4.8 260 10.6 101010 53
2011-12-01 08:42:09 51°16.825 2°52.846 4.1 285 10.6 101010 51
2011-12-01 08:42:14 51°16.841 2°52.835 3.9 263 10.6 101010 51
2011-12-01 08:42:19 51°16.857 2°52.824 4.8 283 10.6 101010 53
2011-12-01 08:42:24 51°16.873 2°52.814 3.1 266 10.6 101010 53
2011-12-01 08:42:29 51°16.889 2°52.804 4.2 281 10.6 101010 53
2011-12-01 08:42:34 51°16.905 2°52.794 4.6 265 10.6 101010 53
2011-12-01 08:42:39 51°16.92 2°52.783 5 284 10.6 101010 53
2011-12-01 08:42:43 51°16.933 2°52.775 3.8 266 10.6 101010 53
2011-12-01 08:42:49 51°16.952 2°52.762 5 282 10.6 101020 53
2011-12-01 08:42:54 51°16.968 2°52.75 3.6 264 10.6 101020 53
2011-12-01 08:42:59 51°16.983 2°52.738 5.8 263 10.6 101010 52
2011-12-01 08:43:04 51°16.999 2°52.727 4.5 265 10.6 101010 52
2011-12-01 08:43:09 51°17.015 2°52.715 5.5 281 10.6 101020 53
2011-12-01 08:43:14 51°17.031 2°52.704 4.2 269 10.6 101020 53
2011-12-01 08:43:19 51°17.047 2°52.693 4.7 284 10.6 101010 53
2011-12-01 08:43:24 51°17.063 2°52.683 3 265 10.6 101010 53
2011-12-01 08:43:29 51°17.079 2°52.673 4 262 10.6 101010 54
2011-12-01 08:43:35 51°17.099 2°52.661 5.6 264 10.6 101010 54
2011-12-01 08:43:39 51°17.112 2°52.654 4.9 79 10.6 101010 53
2011-12-01 08:43:44 51°17.128 2°52.645 5 269 10.6 101010 53
2011-12-01 08:43:49 51°17.145 2°52.636 6.7 76 10.6 101010 52
2011-12-01 08:43:54 51°17.161 2°52.628 5.6 32 10.6 101010 52
2011-12-01 08:43:59 51°17.178 2°52.62 5.5 21 10.6 101010 52
2011-12-01 08:44:04 51°17.194 2°52.611 4.1 269 10.6 101010 52
2011-12-01 08:44:09 51°17.211 2°52.603 4.2 286 10.6 101010 53
2011-12-01 08:44:14 51°17.228 2°52.595 4 267 10.6 101010 53
2011-12-01 08:44:19 51°17.245 2°52.587 4.3 280 10.6 101010 52
2011-12-01 08:44:24 51°17.261 2°52.579 6.1 270 10.6 101010 52
2011-12-01 08:44:29 51°17.278 2°52.571 4.7 279 10.6 101010 52
2011-12-01 08:44:34 51°17.294 2°52.563 3.9 262 10.6 101010 52
2011-12-01 08:44:39 51°17.311 2°52.554 5.1 285 10.6 101000 52
2011-12-01 08:44:44 51°17.327 2°52.545 4.3 269 10.6 101000 52
2011-12-01 08:44:49 51°17.343 2°52.534 6 284 10.6 101010 51
2011-12-01 08:44:54 51°17.359 2°52.524 4.3 265 10.6 101010 51
2011-12-01 08:44:59 51°17.375 2°52.514 4.6 265 10.6 101010 53
2011-12-01 08:45:04 51°17.391 2°52.503 4.1 264 10.6 101010 53
2011-12-01 08:45:09 51°17.406 2°52.491 4 285 10.6 101000 52
2011-12-01 08:45:14 51°17.422 2°52.482 4.4 266 10.6 101000 52
2011-12-01 08:45:19 51°17.439 2°52.473 5.7 279 10.6 101000 52
2011-12-01 08:45:24 51°17.456 2°52.464 5.1 326 10.6 101000 52
2011-12-01 08:45:29 51°17.472 2°52.457 4.3 280 10.6 101010 53
2011-12-01 08:45:34 51°17.489 2°52.45 3.5 269 10.6 101010 53
2011-12-01 08:45:39 51°17.506 2°52.444 4.4 78 10.6 101010 51
2011-12-01 08:45:44 51°17.523 2°52.438 4 39 10.6 101010 51
2011-12-01 08:45:49 51°17.539 2°52.435 3.1 22 10.6 101010 52
2011-12-01 08:45:54 51°17.557 2°52.43 4.2 34 10.6 101010 52
2011-12-01 08:45:59 51°17.574 2°52.427 3.8 23 10.6 101010 53
2011-12-01 08:46:04 51°17.591 2°52.423 5.6 35 10.6 101010 53
2011-12-01 08:46:09 51°17.608 2°52.42 6.5 79 10.6 101010 52
2011-12-01 08:46:14 51°17.625 2°52.417 4.9 37 10.6 101010 52
2011-12-01 08:46:19 51°17.643 2°52.415 4.7 75 10.6 101000 53
2011-12-01 08:46:24 51°17.66 2°52.414 4.3 38 10.6 101000 53
2011-12-01 08:46:29 51°17.677 2°52.414 4.6 81 10.6 101020 52
2011-12-01 08:46:34 51°17.695 2°52.414 4.8 32 10.6 101020 52
2011-12-01 08:46:39 51°17.712 2°52.414 4.2 81 10.6 101010 52
2011-12-01 08:46:44 51°17.729 2°52.416 4.3 30 10.6 101010 52
2011-12-01 08:46:49 51°17.747 2°52.417 4.5 26 10.6 101010 53
2011-12-01 08:46:54 51°17.764 2°52.419 4 32 10.6 101010 53
2011-12-01 08:46:59 51°17.782 2°52.42 4.9 25 10.6 101010 52
2011-12-01 08:47:04 51°17.799 2°52.423 4.9 31 10.6 101010 52
2011-12-01 08:47:09 51°17.816 2°52.424 4.8 75 10.6 101010 52
2011-12-01 08:47:14 51°17.834 2°52.426 4.1 39 10.6 101010 52
2011-12-01 08:47:19 51°17.851 2°52.428 4.4 27 10.6 101010 53
2011-12-01 08:47:23 51°17.865 2°52.43 5.2 30 10.6 101010 53
2011-12-01 08:47:29 51°17.886 2°52.431 4.9 21 10.6 101010 51
2011-12-01 08:47:34 51°17.903 2°52.434 3.6 36 10.6 101010 51
2011-12-01 08:47:39 51°17.921 2°52.437 2.5 81 10.6 101010 52
2011-12-01 08:47:44 51°17.938 2°52.442 1.5 34 10.6 101010 52
2011-12-01 08:47:49 51°17.955 2°52.446 1.4 73 10.6 101010 53
2011-12-01 08:47:54 51°17.972 2°52.452 2.5 32 10.6 101010 53
2011-12-01 08:47:59 51°17.989 2°52.458 2.7 22 10.6 101000 52
2011-12-01 08:48:04 51°18.006 2°52.464 3.1 44 10.6 101000 52
2011-12-01 08:48:09 51°18.022 2°52.473 2.8 22 10.6 101010 53
2011-12-01 08:48:14 51°18.039 2°52.483 2.1 39 10.6 101010 53
2011-12-01 08:48:19 51°18.056 2°52.49 2.6 43 10.7 101010 54
2011-12-01 08:48:24 51°18.072 2°52.5 2.7 43 10.7 101010 54
2011-12-01 08:48:29 51°18.088 2°52.508 2.5 21 10.7 100990 54
2011-12-01 08:48:34 51°18.105 2°52.52 2.9 32 10.7 100990 54
2011-12-01 08:48:39 51°18.121 2°52.528 3.6 40 10.8 101000 54
2011-12-01 08:48:44 51°18.137 2°52.539 4.8 43 10.8 101000 54
2011-12-01 08:48:49 51°18.153 2°52.549 4.2 25 10.8 101000 52
2011-12-01 08:48:54 51°18.17 2°52.559 4.4 32 10.8 101000 52
2011-12-01 08:48:59 51°18.186 2°52.568 4.6 25 10.8 101000 52
2011-12-01 08:49:04 51°18.201 2°52.579 2.9 45 10.8 101000 52
2011-12-01 08:49:09 51°18.218 2°52.589 3.2 44 10.8 101000 53
2011-12-01 08:49:14 51°18.234 2°52.598 2.2 43 10.8 101000 53
2011-12-01 08:49:19 51°18.25 2°52.61 2.8 44 10.7 100990 53
2011-12-01 08:49:24 51°18.266 2°52.622 4.6 34 10.7 100990 53
2011-12-01 08:49:29 51°18.28 2°52.636 5.7 31 10.8 101000 52
2011-12-01 08:49:34 51°18.293 2°52.654 5.8 31 10.8 101000 52
2011-12-01 08:49:39 51°18.307 2°52.67 5.5 34 10.7 100990 53
2011-12-01 08:49:43 51°18.318 2°52.685 6.4 27 10.7 100990 53
2011-12-01 08:49:49 51°18.332 2°52.707 6.3 30 10.7 101000 52
2011-12-01 08:49:54 51°18.344 2°52.725 6.7 28 10.7 101000 52
2011-12-01 08:49:59 51°18.356 2°52.746 6.3 31 10.7 100990 52
2011-12-01 08:50:04 51°18.368 2°52.764 6 26 10.7 100990 52
2011-12-01 08:50:09 51°18.378 2°52.786 5.9 34 10.8 100980 52
2011-12-01 08:50:14 51°18.391 2°52.805 6.2 26 10.8 100980 52
2011-12-01 08:50:19 51°18.402 2°52.827 6.1 25 10.7 100980 52
2011-12-01 08:50:24 51°18.412 2°52.848 6.9 24 10.7 100980 52
2011-12-01 08:50:29 51°18.423 2°52.868 6.7 22 10.7 100980 52
2011-12-01 08:50:35 51°18.436 2°52.894 5.8 25 10.7 100980 52
2011-12-01 08:50:39 51°18.445 2°52.911 7.2 28 10.7 100990 52
2011-12-01 08:50:44 51°18.455 2°52.934 5.7 28 10.7 100990 52
2011-12-01 08:50:49 51°18.466 2°52.954 6.1 27 10.7 100980 53
2011-12-01 08:50:54 51°18.476 2°52.976 6 22 10.7 100980 53
2011-12-01 08:50:59 51°18.488 2°52.997 6 23 10.7 100980 53
2011-12-01 08:51:04 51°18.498 2°53.019 7.8 23 10.7 100980 53
2011-12-01 08:51:09 51°18.508 2°53.041 5.5 21 10.7 100980 53
2011-12-01 08:51:14 51°18.518 2°53.064 7.8 23 10.7 100980 53
2011-12-01 08:51:19 51°18.528 2°53.087 5.7 23 10.7 100990 52
2011-12-01 08:51:24 51°18.538 2°53.109 6.9 26 10.7 100990 52
2011-12-01 08:51:29 51°18.548 2°53.13 6.9 27 10.7 100990 52
2011-12-01 08:51:34 51°18.557 2°53.153 7.3 26 10.7 100990 52
2011-12-01 08:51:39 51°18.568 2°53.174 6.1 21 10.7 100980 52
2011-12-01 08:51:44 51°18.577 2°53.198 5.5 22 10.7 100980 52
2011-12-01 08:51:49 51°18.589 2°53.219 6.1 24 10.7 100980 53
2011-12-01 08:51:54 51°18.598 2°53.242 6 19 10.7 100980 53
2011-12-01 08:51:59 51°18.609 2°53.263 6 24 10.7 100980 53
2011-12-01 08:52:04 51°18.618 2°53.286 6.8 20 10.7 100980 53
2011-12-01 08:52:09 51°18.628 2°53.309 7.2 27 10.7 100990 53
2011-12-01 08:52:14 51°18.639 2°53.331 6.8 26 10.7 100990 53
2011-12-01 08:52:19 51°18.649 2°53.353 6.5 23 10.7 100990 53
2011-12-01 08:52:24 51°18.659 2°53.375 5.9 22 10.7 100990 53
2011-12-01 08:52:29 51°18.669 2°53.397 6.7 24 10.7 100990 52
2011-12-01 08:52:35 51°18.681 2°53.423 6.8 22 10.7 100990 52
2011-12-01 08:52:39 51°18.688 2°53.442 6 27 10.7 100980 53
2011-12-01 08:52:44 51°18.699 2°53.463 6.8 25 10.7 100980 53
2011-12-01 08:52:49 51°18.708 2°53.487 8.1 26 10.7 100990 52
2011-12-01 08:52:54 51°18.72 2°53.506 7.4 23 10.7 100990 52
2011-12-01 08:52:59 51°18.728 2°53.529 8.2 25 10.7 100980 53
2011-12-01 08:53:04 51°18.739 2°53.552 6.5 24 10.7 100980 53
2011-12-01 08:53:09 51°18.748 2°53.575 7.9 17 10.7 100980 52
2011-12-01 08:53:14 51°18.756 2°53.599 7.6 23 10.7 100980 52
2011-12-01 08:53:19 51°18.765 2°53.621 8.7 22 10.7 100970 53
2011-12-01 08:53:24 51°18.772 2°53.645 7.1 20 10.7 100970 53
2011-12-01 08:53:29 51°18.78 2°53.669 7.4 20 10.7 100970 53
2011-12-01 08:53:34 51°18.787 2°53.694 9 18 10.7 100970 53
2011-12-01 08:53:39 51°18.794 2°53.717 9 20 10.7 100980 53
2011-12-01 08:53:44 51°18.799 2°53.742 7.3 16 10.7 100980 53
2011-12-01 08:53:49 51°18.807 2°53.766 8.8 20 10.7 100980 52
2011-12-01 08:53:54 51°18.813 2°53.791 8.4 18 10.7 100980 52
2011-12-01 08:53:59 51°18.819 2°53.816 8.3 15 10.7 100970 53
2011-12-01 08:54:03 51°18.823 2°53.837 9.3 21 10.7 100970 53
2011-12-01 08:54:09 51°18.832 2°53.865 7.9 15 10.7 100970 53
2011-12-01 08:54:14 51°18.837 2°53.89 7 16 10.7 100970 53
2011-12-01 08:54:19 51°18.844 2°53.915 9.1 17 10.7 100980 52
2011-12-01 08:54:24 51°18.849 2°53.94 7.5 19 10.7 100980 52
2011-12-01 08:54:29 51°18.857 2°53.965 9 16 10.7 100970 53
2011-12-01 08:54:34 51°18.862 2°53.99 8.6 16 10.7 100970 53
2011-12-01 08:54:39 51°18.869 2°54.015 10.3 23 10.7 100980 52
2011-12-01 08:54:44 51°18.874 2°54.04 8.1 16 10.7 100980 52
2011-12-01 08:54:49 51°18.881 2°54.065 7.5 11 10.7 100990 53
2011-12-01 08:54:54 51°18.886 2°54.091 8.4 14 10.7 100990 53
2011-12-01 08:54:59 51°18.892 2°54.116 8.6 15 10.7 100980 53
2011-12-01 08:55:04 51°18.897 2°54.142 7.4 13 10.7 100980 53
2011-12-01 08:55:09 51°18.904 2°54.167 8.6 17 10.7 100980 52
2011-12-01 08:55:14 51°18.909 2°54.193 8.4 17 10.7 100980 52
2011-12-01 08:55:19 51°18.915 2°54.218 9.2 13 10.7 100980 53
2011-12-01 08:55:24 51°18.921 2°54.244 10.4 16 10.7 100980 53
2011-12-01 08:55:29 51°18.927 2°54.27 9.7 18 10.7 100980 52
2011-12-01 08:55:34 51°18.933 2°54.295 7.9 13 10.7 100980 52
2011-12-01 08:55:39 51°18.939 2°54.321 9.3 17 10.7 100980 53
2011-12-01 08:55:44 51°18.944 2°54.346 9.6 16 10.7 100980 53
2011-12-01 08:55:49 51°18.95 2°54.372 9.8 18 10.7 100980 52
2011-12-01 08:55:54 51°18.957 2°54.397 9.4 14 10.7 100980 52
2011-12-01 08:55:59 51°18.962 2°54.423 9.2 12 10.7 100970 51
2011-12-01 08:56:04 51°18.968 2°54.448 9 18 10.7 100970 51
2011-12-01 08:56:09 51°18.974 2°54.473 9.5 20 10.7 100970 52
2011-12-01 08:56:14 51°18.98 2°54.498 9.4 14 10.7 100970 52
2011-12-01 08:56:19 51°18.986 2°54.524 7.9 20 10.7 100980 52
2011-12-01 08:56:24 51°18.993 2°54.549 8.4 15 10.7 100980 52
2011-12-01 08:56:29 51°19 2°54.573 8.7 17 10.7 100980 52
2011-12-01 08:56:34 51°19.006 2°54.598 8.7 20 10.7 100980 52
2011-12-01 08:56:39 51°19.014 2°54.622 10 20 10.8 100980 53
2011-12-01 08:56:44 51°19.021 2°54.647 8.8 17 10.8 100980 53
2011-12-01 08:56:49 51°19.028 2°54.672 7.6 20 10.8 100980 52
2011-12-01 08:56:54 51°19.035 2°54.697 7.6 16 10.8 100980 52
2011-12-01 08:56:59 51°19.042 2°54.722 6.8 18 10.8 100980 53
2011-12-01 08:57:04 51°19.049 2°54.746 8.5 20 10.8 100980 53
2011-12-01 08:57:09 51°19.057 2°54.771 9 22 10.8 100980 52
2011-12-01 08:57:14 51°19.064 2°54.795 7.2 17 10.8 100980 52
2011-12-01 08:57:19 51°19.071 2°54.82 9.1 18 10.8 100980 52
2011-12-01 08:57:24 51°19.078 2°54.845 8.5 16 10.8 100980 52
2011-12-01 08:57:29 51°19.085 2°54.87 8.8 18 10.8 100980 53
2011-12-01 08:57:34 51°19.092 2°54.895 7.7 17 10.8 100980 53
2011-12-01 08:57:39 51°19.099 2°54.92 8.6 19 10.8 100970 52
2011-12-01 08:57:44 51°19.105 2°54.945 9.6 13 10.8 100970 52
2011-12-01 08:57:49 51°19.112 2°54.97 7.9 15 10.8 100980 52
2011-12-01 08:57:54 51°19.118 2°54.996 8.1 16 10.8 100980 52
2011-12-01 08:57:59 51°19.125 2°55.021 8.7 16 10.8 100970 53
2011-12-01 08:58:04 51°19.133 2°55.045 8.4 16 10.8 100970 53
2011-12-01 08:58:09 51°19.138 2°55.07 8.6 20 10.8 100970 51
2011-12-01 08:58:14 51°19.146 2°55.095 7.7 13 10.8 100970 51
2011-12-01 08:58:19 51°19.152 2°55.12 9.4 15 10.8 100980 52
2011-12-01 08:58:24 51°19.159 2°55.144 7.5 17 10.8 100980 52
2011-12-01 08:58:29 51°19.165 2°55.17 8.5 15 10.8 100970 52
2011-12-01 08:58:34 51°19.172 2°55.195 8.9 16 10.8 100970 52
2011-12-01 08:58:39 51°19.178 2°55.22 8.8 14 10.8 100970 52
2011-12-01 08:58:44 51°19.185 2°55.244 8.5 11 10.8 100970 52
2011-12-01 08:58:49 51°19.191 2°55.27 7.4 16 10.8 100970 52
2011-12-01 08:58:54 51°19.199 2°55.294 8.3 15 10.8 100970 52
2011-12-01 08:58:59 51°19.204 2°55.319 10 14 10.8 100970 53
2011-12-01 08:59:04 51°19.211 2°55.343 8.3 12 10.8 100970 53
2011-12-01 08:59:09 51°19.217 2°55.369 7.5 13 10.8 100970 53
2011-12-01 08:59:14 51°19.223 2°55.393 9 19 10.8 100970 53
2011-12-01 08:59:19 51°19.23 2°55.418 8.8 14 10.8 100970 52
2011-12-01 08:59:24 51°19.236 2°55.443 7.8 13 10.8 100970 52
2011-12-01 08:59:29 51°19.243 2°55.468 8.5 18 10.8 100970 53
2011-12-01 08:59:34 51°19.249 2°55.493 8.7 12 10.8 100970 53
2011-12-01 08:59:39 51°19.257 2°55.517 7.1 16 10.8 100970 53
2011-12-01 08:59:44 51°19.263 2°55.542 7.7 14 10.8 100970 53
2011-12-01 08:59:49 51°19.271 2°55.567 7.7 17 10.8 100970 52
2011-12-01 08:59:54 51°19.277 2°55.592 7.3 16 10.8 100970 52
2011-12-01 08:59:59 51°19.284 2°55.616 6.7 13 10.8 100970 52
2011-12-01 09:00:04 51°19.292 2°55.641 8.6 19 10.8 100970 52
2011-12-01 09:00:09 51°19.299 2°55.666 9.3 20 10.8 100980 52
2011-12-01 09:00:14 51°19.306 2°55.69 7.7 18 10.8 100980 52
2011-12-01 09:00:19 51°19.314 2°55.715 6.7 14 10.8 100970 53
2011-12-01 09:00:24 51°19.322 2°55.739 7.2 20 10.8 100970 53
2011-12-01 09:00:29 51°19.329 2°55.762 7.8 15 10.8 100970 52
2011-12-01 09:00:34 51°19.336 2°55.787 7.8 12 10.8 100970 52
2011-12-01 09:00:39 51°19.344 2°55.811 7.1 10 10.8 100980 53
2011-12-01 09:00:44 51°19.35 2°55.836 9.1 15 10.8 100980 53
2011-12-01 09:00:49 51°19.356 2°55.861 8.2 14 10.8 100980 52
2011-12-01 09:00:54 51°19.363 2°55.886 9.6 16 10.8 100980 52
2011-12-01 09:00:59 51°19.37 2°55.911 8 11 10.8 100980 52
2011-12-01 09:01:04 51°19.377 2°55.935 9 16 10.8 100980 52
2011-12-01 09:01:09 51°19.382 2°55.96 7.8 13 10.8 100970 52
2011-12-01 09:01:14 51°19.389 2°55.986 8.4 10 10.8 100970 52
2011-12-01 09:01:19 51°19.397 2°56.011 9.4 11 10.8 100970 51
2011-12-01 09:01:24 51°19.403 2°56.035 7.9 17 10.8 100970 51
2011-12-01 09:01:29 51°19.41 2°56.06 7.4 15 10.8 100970 53
2011-12-01 09:01:35 51°19.419 2°56.089 6.8 11 10.8 100970 53
2011-12-01 09:01:39 51°19.426 2°56.108 9.2 18 10.8 100980 53
2011-12-01 09:01:44 51°19.432 2°56.133 7 22 10.8 100980 53
2011-12-01 09:01:49 51°19.44 2°56.156 6.6 22 10.8 100970 52
2011-12-01 09:01:54 51°19.446 2°56.181 7.5 18 10.8 100970 52
2011-12-01 09:01:59 51°19.455 2°56.204 6.7 14 10.8 100970 53
2011-12-01 09:02:04 51°19.462 2°56.229 8 16 10.8 100970 53
2011-12-01 09:02:09 51°19.469 2°56.252 8.7 16 10.8 100980 53
2011-12-01 09:02:14 51°19.475 2°56.277 9.7 14 10.8 100980 53
2011-12-01 09:02:19 51°19.481 2°56.303 8.8 19 10.8 100980 53
2011-12-01 09:02:24 51°19.488 2°56.327 8.7 9 10.8 100980 53
2011-12-01 09:02:29 51°19.494 2°56.352 8.8 15 10.8 100980 52
2011-12-01 09:02:34 51°19.501 2°56.378 7.8 15 10.8 100980 52
2011-12-01 09:02:39 51°19.508 2°56.402 8.9 12 10.8 100980 53
2011-12-01 09:02:44 51°19.513 2°56.426 7.8 14 10.8 100980 53
2011-12-01 09:02:49 51°19.52 2°56.452 7.4 12 10.8 100970 52
2011-12-01 09:02:54 51°19.526 2°56.477 8.3 11 10.8 100970 52
2011-12-01 09:02:59 51°19.533 2°56.501 8.1 14 10.8 100970 53
2011-12-01 09:03:04 51°19.539 2°56.527 8.4 15 10.8 100970 53
2011-12-01 09:03:09 51°19.547 2°56.552 7.7 15 10.8 100980 53
2011-12-01 09:03:14 51°19.553 2°56.576 8 13 10.8 100980 53
2011-12-01 09:03:19 51°19.559 2°56.601 7.7 12 10.8 100980 52
2011-12-01 09:03:23 51°19.565 2°56.621 8.6 15 10.8 100980 52
2011-12-01 09:03:29 51°19.574 2°56.65 8.4 14 10.8 100970 51
2011-12-01 09:03:34 51°19.579 2°56.675 7.8 16 10.8 100970 51
2011-12-01 09:03:39 51°19.587 2°56.698 8.4 10 10.8 100980 53
2011-12-01 09:03:44 51°19.593 2°56.724 7.7 13 10.8 100980 53
2011-12-01 09:03:49 51°19.602 2°56.748 8 14 10.7 100980 52
2011-12-01 09:03:54 51°19.608 2°56.772 7.8 10 10.7 100980 52
2011-12-01 09:03:59 51°19.615 2°56.797 8.7 13 10.8 100980 51
2011-12-01 09:04:04 51°19.621 2°56.822 6.9 9 10.8 100980 51
2011-12-01 09:04:09 51°19.628 2°56.846 8.3 8 10.8 100980 53
2011-12-01 09:04:14 51°19.633 2°56.871 9.5 13 10.8 100980 53
2011-12-01 09:04:19 51°19.64 2°56.896 9.1 12 10.8 100980 53
2011-12-01 09:04:24 51°19.647 2°56.921 8.1 11 10.8 100980 53
2011-12-01 09:04:29 51°19.652 2°56.945 8.1 7 10.8 100980 51
2011-12-01 09:04:34 51°19.659 2°56.97 8.6 12 10.8 100980 51
2011-12-01 09:04:39 51°19.665 2°56.995 9.9 17 10.8 100980 52
2011-12-01 09:04:44 51°19.672 2°57.019 8.5 9 10.8 100980 52
2011-12-01 09:04:49 51°19.679 2°57.043 7.1 12 10.8 100970 52
2011-12-01 09:04:54 51°19.686 2°57.068 8.9 15 10.8 100970 52
2011-12-01 09:04:59 51°19.694 2°57.092 7.4 9 10.7 100980 52
2011-12-01 09:05:04 51°19.701 2°57.116 7.6 12 10.7 100980 52
2011-12-01 09:05:09 51°19.706 2°57.141 7.6 12 10.7 100980 52
2011-12-01 09:05:14 51°19.714 2°57.165 6.7 15 10.7 100980 52
2011-12-01 09:05:19 51°19.721 2°57.189 9.1 10 10.7 100980 53
2011-12-01 09:05:24 51°19.726 2°57.213 7.7 12 10.7 100980 53
2011-12-01 09:05:29 51°19.734 2°57.238 6.6 10 10.7 100980 53
2011-12-01 09:05:34 51°19.742 2°57.261 8.9 14 10.7 100980 53
2011-12-01 09:05:39 51°19.746 2°57.286 7.3 13 10.7 100980 52
2011-12-01 09:05:44 51°19.754 2°57.311 7 8 10.7 100980 52
2011-12-01 09:05:49 51°19.761 2°57.335 7.6 13 10.7 100980 52
2011-12-01 09:05:54 51°19.767 2°57.359 7.9 14 10.7 100980 52
2011-12-01 09:05:59 51°19.773 2°57.384 7.4 11 10.7 100980 52
2011-12-01 09:06:04 51°19.781 2°57.409 9.1 10 10.7 100980 52
2011-12-01 09:06:09 51°19.788 2°57.433 8 9 10.7 100990 52
2011-12-01 09:06:14 51°19.793 2°57.457 7.3 11 10.7 100990 52
2011-12-01 09:06:19 51°19.801 2°57.482 9 10 10.7 100980 52
2011-12-01 09:06:24 51°19.808 2°57.506 8 16 10.7 100980 52
2011-12-01 09:06:29 51°19.814 2°57.53 8.4 12 10.7 100980 52
2011-12-01 09:06:34 51°19.822 2°57.555 8.4 12 10.7 100980 52
2011-12-01 09:06:39 51°19.829 2°57.579 9.6 10 10.7 100990 51
2011-12-01 09:06:44 51°19.836 2°57.602 8.4 14 10.7 100990 51
2011-12-01 09:06:49 51°19.842 2°57.627 9.2 13 10.7 100980 52
2011-12-01 09:06:54 51°19.85 2°57.651 7.3 15 10.7 100980 52
2011-12-01 09:06:59 51°19.857 2°57.674 7.9 15 10.7 100990 53
2011-12-01 09:07:04 51°19.863 2°57.698 7.3 12 10.7 100990 53
2011-12-01 09:07:09 51°19.871 2°57.722 8.2 10 10.7 100990 53
2011-12-01 09:07:14 51°19.878 2°57.746 7 16 10.7 100990 53
2011-12-01 09:07:19 51°19.885 2°57.769 7.2 15 10.7 100990 51
2011-12-01 09:07:24 51°19.892 2°57.793 8.6 12 10.7 100990 51
2011-12-01 09:07:29 51°19.899 2°57.817 8.5 12 10.7 100990 52
2011-12-01 09:07:34 51°19.906 2°57.842 8.2 13 10.7 100990 52
2011-12-01 09:07:39 51°19.913 2°57.866 9 14 10.7 100990 52
2011-12-01 09:07:44 51°19.92 2°57.891 9.2 13 10.7 100990 52
2011-12-01 09:07:49 51°19.926 2°57.914 9.6 16 10.7 100990 52
2011-12-01 09:07:54 51°19.932 2°57.939 8 7 10.7 100990 52
2011-12-01 09:07:59 51°19.939 2°57.965 8 12 10.7 100990 52
2011-12-01 09:08:04 51°19.945 2°57.989 8.4 15 10.7 100990 52
2011-12-01 09:08:09 51°19.952 2°58.013 7.4 14 10.7 100990 52
2011-12-01 09:08:14 51°19.959 2°58.037 8.4 12 10.7 100990 52
2011-12-01 09:08:19 51°19.965 2°58.061 7.9 14 10.7 100990 53
2011-12-01 09:08:24 51°19.973 2°58.086 8.2 17 10.7 100990 53
2011-12-01 09:08:29 51°19.98 2°58.11 8.3 13 10.7 100990 53
2011-12-01 09:08:34 51°19.986 2°58.134 9 11 10.7 100990 53
2011-12-01 09:08:39 51°19.992 2°58.159 7.5 18 10.6 100990 53
2011-12-01 09:08:44 51°19.999 2°58.184 8.8 10 10.6 100990 53
2011-12-01 09:08:49 51°20.006 2°58.208 7.6 14 10.7 100990 52
2011-12-01 09:08:54 51°20.011 2°58.232 7.7 14 10.7 100990 52
2011-12-01 09:08:59 51°20.019 2°58.256 8.2 15 10.7 100990 53
2011-12-01 09:09:04 51°20.025 2°58.281 7.6 10 10.7 100990 53
2011-12-01 09:09:09 51°20.032 2°58.304 8.5 13 10.7 100990 52
2011-12-01 09:09:14 51°20.038 2°58.33 8.1 10 10.7 100990 52
2011-12-01 09:09:19 51°20.045 2°58.354 9.7 11 10.7 101000 52
2011-12-01 09:09:24 51°20.051 2°58.38 8.5 10 10.7 101000 52
2011-12-01 09:09:29 51°20.058 2°58.404 8.3 13 10.7 100990 53
2011-12-01 09:09:34 51°20.064 2°58.428 7.6 13 10.7 100990 53
2011-12-01 09:09:39 51°20.07 2°58.453 7.8 14 10.7 100990 53
2011-12-01 09:09:44 51°20.077 2°58.478 8.1 16 10.7 100990 53
2011-12-01 09:09:49 51°20.083 2°58.503 7.6 14 10.7 100990 52
2011-12-01 09:09:54 51°20.09 2°58.527 8.1 15 10.7 100990 52
2011-12-01 09:09:59 51°20.096 2°58.551 8.3 18 10.6 101000 52
2011-12-01 09:10:04 51°20.103 2°58.575 8.5 17 10.6 101000 52
2011-12-01 09:10:09 51°20.111 2°58.599 7.2 15 10.7 101000 52
2011-12-01 09:10:14 51°20.118 2°58.623 7.7 15 10.7 101000 52
2011-12-01 09:10:19 51°20.124 2°58.647 6.8 11 10.7 100990 52
2011-12-01 09:10:24 51°20.132 2°58.671 8.5 15 10.7 100990 52
2011-12-01 09:10:29 51°20.139 2°58.695 7.3 13 10.7 101000 52
2011-12-01 09:10:34 51°20.146 2°58.719 8.1 17 10.7 101000 52
2011-12-01 09:10:39 51°20.153 2°58.743 7.6 21 10.6 101000 52
2011-12-01 09:10:43 51°20.159 2°58.762 7.5 17 10.6 101000 52
2011-12-01 09:10:49 51°20.168 2°58.791 7.9 16 10.7 101000 52
2011-12-01 09:10:54 51°20.176 2°58.815 8.5 18 10.7 101000 52
2011-12-01 09:10:59 51°20.182 2°58.839 7.4 17 10.6 101000 53
2011-12-01 09:11:04 51°20.19 2°58.863 7.6 17 10.6 101000 53
2011-12-01 09:11:09 51°20.197 2°58.886 6.8 19 10.7 101000 52
2011-12-01 09:11:14 51°20.205 2°58.911 8.9 16 10.7 101000 52
2011-12-01 09:11:19 51°20.212 2°58.935 9 10 10.7 101000 53
2011-12-01 09:11:24 51°20.218 2°58.959 9.2 17 10.7 101000 53
2011-12-01 09:11:29 51°20.224 2°58.984 6.9 18 10.7 101000 52
2011-12-01 09:11:34 51°20.232 2°59.008 8 16 10.7 101000 52
2011-12-01 09:11:39 51°20.238 2°59.033 7.8 11 10.7 101000 53
2011-12-01 09:11:44 51°20.245 2°59.056 7.5 16 10.7 101000 53
2011-12-01 09:11:49 51°20.251 2°59.081 8.2 16 10.7 101000 52
2011-12-01 09:11:54 51°20.258 2°59.106 7 17 10.7 101000 52
2011-12-01 09:11:59 51°20.265 2°59.129 7.6 14 10.7 101000 51
2011-12-01 09:12:04 51°20.271 2°59.153 8.6 17 10.7 101000 51
2011-12-01 09:12:09 51°20.279 2°59.178 7.7 18 10.7 100990 52
2011-12-01 09:12:14 51°20.287 2°59.202 7.6 16 10.7 100990 52
2011-12-01 09:12:19 51°20.293 2°59.225 7.7 11 10.7 100990 52
2011-12-01 09:12:23 51°20.298 2°59.245 7 16 10.7 100990 52
2011-12-01 09:12:29 51°20.307 2°59.275 7.6 17 10.7 100990 53
2011-12-01 09:12:34 51°20.314 2°59.298 7 18 10.7 100990 53
2011-12-01 09:12:39 51°20.321 2°59.322 8.8 20 10.7 100990 53
2011-12-01 09:12:44 51°20.328 2°59.346 7 17 10.7 100990 53
2011-12-01 09:12:49 51°20.336 2°59.37 7 15 10.7 101000 52
2011-12-01 09:12:54 51°20.342 2°59.394 8.4 17 10.7 101000 52
2011-12-01 09:12:59 51°20.349 2°59.418 8.1 14 10.7 101000 53
2011-12-01 09:13:04 51°20.354 2°59.443 7.4 14 10.7 101000 53
2011-12-01 09:13:09 51°20.36 2°59.468 8 13 10.7 100990 53
2011-12-01 09:13:14 51°20.366 2°59.492 8 16 10.7 100990 53
2011-12-01 09:13:19 51°20.372 2°59.517 9.1 13 10.7 100990 52
2011-12-01 09:13:24 51°20.377 2°59.543 8.9 15 10.7 100990 52
2011-12-01 09:13:29 51°20.383 2°59.568 7.8 16 10.7 101000 53
2011-12-01 09:13:34 51°20.389 2°59.592 9.5 11 10.7 101000 53
2011-12-01 09:13:39 51°20.395 2°59.616 7.3 12 10.7 100990 52
2011-12-01 09:13:44 51°20.401 2°59.641 8.4 14 10.7 100990 52
2011-12-01 09:13:49 51°20.406 2°59.667 8.4 15 10.7 100990 52
2011-12-01 09:13:54 51°20.412 2°59.691 8.6 18 10.7 100990 52
2011-12-01 09:13:59 51°20.418 2°59.715 7.9 17 10.7 100990 53
2011-12-01 09:14:04 51°20.424 2°59.74 7.7 13 10.7 100990 53
2011-12-01 09:14:09 51°20.43 2°59.764 7.5 17 10.7 100990 51
2011-12-01 09:14:14 51°20.436 2°59.789 7.5 13 10.7 100990 51
2011-12-01 09:14:19 51°20.442 2°59.813 7.2 18 10.7 100990 53
2011-12-01 09:14:24 51°20.448 2°59.837 7.5 19 10.7 100990 53
2011-12-01 09:14:29 51°20.455 2°59.861 8.1 21 10.7 100990 53
2011-12-01 09:14:34 51°20.462 2°59.884 8.9 21 10.7 100990 53
2011-12-01 09:14:39 51°20.469 2°59.908 8.5 18 10.7 101000 51
2011-12-01 09:14:44 51°20.476 2°59.932 7.8 16 10.7 101000 51
2011-12-01 09:14:49 51°20.482 2°59.957 8.1 19 10.8 100990 52
2011-12-01 09:14:54 51°20.489 2°59.981 7.2 15 10.8 100990 52
2011-12-01 09:14:59 51°20.495 3°0.005 8.3 15 10.8 100990 53
2011-12-01 09:15:04 51°20.502 3°0.028 7.8 21 10.8 100990 53
2011-12-01 09:15:09 51°20.509 3°0.052 8.9 22 10.8 100990 53
2011-12-01 09:15:14 51°20.517 3°0.075 7.2 19 10.8 100990 53
2011-12-01 09:15:19 51°20.524 3°0.099 8.7 22 10.8 100990 52
2011-12-01 09:15:24 51°20.531 3°0.123 7.3 20 10.8 100990 52
2011-12-01 09:15:29 51°20.539 3°0.146 7.9 15 10.8 100990 53
2011-12-01 09:15:35 51°20.547 3°0.175 6.9 15 10.8 100990 53
2011-12-01 09:15:39 51°20.553 3°0.194 8.6 17 10.8 100990 54
2011-12-01 09:15:44 51°20.559 3°0.218 7.8 19 10.8 100990 54
2011-12-01 09:15:49 51°20.567 3°0.242 7.2 17 10.8 101000 52
2011-12-01 09:15:54 51°20.573 3°0.266 7.4 14 10.8 101000 52
2011-12-01 09:15:59 51°20.579 3°0.29 7.1 13 10.7 100990 52
2011-12-01 09:16:04 51°20.585 3°0.315 6.9 19 10.7 100990 52
2011-12-01 09:16:09 51°20.592 3°0.339 7.7 17 10.8 100990 53
2011-12-01 09:16:14 51°20.597 3°0.363 8.6 18 10.8 100990 53
2011-12-01 09:16:19 51°20.604 3°0.387 8.1 16 10.8 100990 52
2011-12-01 09:16:24 51°20.611 3°0.412 7.6 17 10.8 100990 52
2011-12-01 09:16:29 51°20.617 3°0.436 7 19 10.8 100990 53
2011-12-01 09:16:34 51°20.624 3°0.46 6.6 15 10.8 100990 53
2011-12-01 09:16:39 51°20.631 3°0.484 8.4 18 10.8 100990 52
2011-12-01 09:16:44 51°20.637 3°0.508 8.9 14 10.8 100990 52
2011-12-01 09:16:49 51°20.642 3°0.533 8.1 17 10.8 100990 53
2011-12-01 09:16:54 51°20.648 3°0.557 7 18 10.8 100990 53
2011-12-01 09:16:59 51°20.654 3°0.582 7.8 13 10.8 100990 54
2011-12-01 09:17:04 51°20.66 3°0.605 7.2 17 10.8 100990 54
2011-12-01 09:17:09 51°20.666 3°0.63 7.1 13 10.8 100990 53
2011-12-01 09:17:14 51°20.673 3°0.654 9.2 18 10.8 100990 53
2011-12-01 09:17:19 51°20.68 3°0.678 7 17 10.8 100990 51
2011-12-01 09:17:24 51°20.686 3°0.7 9.3 17 10.8 100990 51
2011-12-01 09:17:29 51°20.693 3°0.725 7.5 20 10.8 100990 53
2011-12-01 09:17:35 51°20.702 3°0.753 7.8 19 10.8 100990 53
2011-12-01 09:17:39 51°20.707 3°0.771 6.3 13 10.8 100990 52
2011-12-01 09:17:44 51°20.713 3°0.795 7.5 14 10.8 100990 52
2011-12-01 09:17:49 51°20.721 3°0.819 7 12 10.8 100990 53
2011-12-01 09:17:55 51°20.728 3°0.847 8.9 19 10.8 100990 53
2011-12-01 09:17:59 51°20.734 3°0.865 7.4 23 10.8 100990 52
2011-12-01 09:18:04 51°20.741 3°0.889 7.1 11 10.8 100990 52
2011-12-01 09:18:09 51°20.748 3°0.913 6.2 14 10.8 100990 53
2011-12-01 09:18:14 51°20.755 3°0.937 7.5 14 10.8 100990 53
2011-12-01 09:18:19 51°20.761 3°0.96 7.9 14 10.8 100990 52
2011-12-01 09:18:24 51°20.767 3°0.984 9.2 14 10.8 100990 52
2011-12-01 09:18:29 51°20.772 3°1.009 8.7 19 10.8 100990 54
2011-12-01 09:18:34 51°20.779 3°1.034 8.5 16 10.8 100990 54
2011-12-01 09:18:39 51°20.785 3°1.058 8.6 16 10.8 100990 53
2011-12-01 09:18:44 51°20.791 3°1.082 7.4 13 10.8 100990 53
2011-12-01 09:18:49 51°20.797 3°1.106 6.2 17 10.8 100990 53
2011-12-01 09:18:54 51°20.805 3°1.13 8.8 16 10.8 100990 53
2011-12-01 09:18:59 51°20.81 3°1.154 8.6 17 10.8 100990 54
2011-12-01 09:19:04 51°20.816 3°1.178 7.7 13 10.8 100990 54
2011-12-01 09:19:09 51°20.822 3°1.202 6.8 16 10.8 100990 53
2011-12-01 09:19:14 51°20.829 3°1.226 7.9 18 10.8 100990 53
2011-12-01 09:19:19 51°20.835 3°1.25 7.3 16 10.8 101000 53
2011-12-01 09:19:23 51°20.841 3°1.269 8 16 10.8 101000 53
2011-12-01 09:19:29 51°20.848 3°1.297 7.4 17 10.8 100990 53
2011-12-01 09:19:34 51°20.854 3°1.322 7.5 10 10.8 100990 53
2011-12-01 09:19:39 51°20.861 3°1.345 8.2 18 10.8 100990 52
2011-12-01 09:19:44 51°20.866 3°1.37 6.6 13 10.8 100990 52
2011-12-01 09:19:49 51°20.873 3°1.393 5.8 16 10.8 100990 52
2011-12-01 09:19:54 51°20.879 3°1.417 7.6 15 10.8 100990 52
2011-12-01 09:19:59 51°20.886 3°1.441 7.7 14 10.8 100990 51
2011-12-01 09:20:04 51°20.892 3°1.466 8.2 20 10.8 100990 51
2011-12-01 09:20:09 51°20.899 3°1.49 7.7 20 10.8 100990 53
2011-12-01 09:20:14 51°20.905 3°1.513 8.7 14 10.8 100990 53
2011-12-01 09:20:19 51°20.911 3°1.537 7.6 19 10.8 100990 53
2011-12-01 09:20:24 51°20.917 3°1.562 7.8 20 10.8 100990 53
2011-12-01 09:20:29 51°20.924 3°1.585 6.5 14 10.8 100990 53
2011-12-01 09:20:34 51°20.93 3°1.609 7.6 15 10.8 100990 53
2011-12-01 09:20:39 51°20.936 3°1.633 7.5 17 10.8 100990 53
2011-12-01 09:20:44 51°20.943 3°1.656 8.3 18 10.8 100990 53
2011-12-01 09:20:49 51°20.949 3°1.679 7.3 15 10.8 100990 53
2011-12-01 09:20:54 51°20.955 3°1.704 6.9 16 10.8 100990 53
2011-12-01 09:20:59 51°20.963 3°1.727 8.5 13 10.8 100990 53
2011-12-01 09:21:04 51°20.968 3°1.751 9.2 18 10.8 100990 53
2011-12-01 09:21:09 51°20.975 3°1.774 7.5 19 10.8 100990 53
2011-12-01 09:21:14 51°20.982 3°1.798 7.3 17 10.8 100990 53
2011-12-01 09:21:19 51°20.988 3°1.821 7.1 18 10.8 100990 53
2011-12-01 09:21:24 51°20.995 3°1.844 6.4 18 10.8 100990 53
2011-12-01 09:21:29 51°21.003 3°1.867 6.4 17 10.8 100990 52
2011-12-01 09:21:34 51°21.01 3°1.89 7 19 10.8 100990 52
2011-12-01 09:21:39 51°21.018 3°1.913 7.5 19 10.7 100990 53
2011-12-01 09:21:44 51°21.025 3°1.936 6.3 20 10.7 100990 53
2011-12-01 09:21:49 51°21.033 3°1.958 8.4 16 10.8 100990 52
2011-12-01 09:21:54 51°21.04 3°1.981 7.1 17 10.8 100990 52
2011-12-01 09:21:59 51°21.048 3°2.003 7.6 16 10.8 100990 52
2011-12-01 09:22:04 51°21.055 3°2.027 6.8 13 10.8 100990 52
2011-12-01 09:22:09 51°21.063 3°2.05 7 11 10.8 100990 53
2011-12-01 09:22:15 51°21.069 3°2.078 7.5 17 10.8 100990 53
2011-12-01 09:22:19 51°21.076 3°2.097 7.6 13 10.7 100990 52
2011-12-01 09:22:24 51°21.082 3°2.12 7.8 15 10.7 100990 52
2011-12-01 09:22:29 51°21.089 3°2.143 7.2 14 10.7 100990 53
2011-12-01 09:22:34 51°21.096 3°2.167 6.9 14 10.7 100990 53
2011-12-01 09:22:39 51°21.103 3°2.191 7.6 15 10.7 100990 51
2011-12-01 09:22:44 51°21.109 3°2.214 6.8 13 10.7 100990 51
2011-12-01 09:22:49 51°21.115 3°2.237 7.3 15 10.7 100990 52
2011-12-01 09:22:54 51°21.121 3°2.262 8.5 11 10.7 100990 52
2011-12-01 09:22:59 51°21.127 3°2.286 7.5 13 10.7 100990 53
2011-12-01 09:23:04 51°21.133 3°2.31 8.4 13 10.7 100990 53
2011-12-01 09:23:09 51°21.139 3°2.334 8 17 10.7 100980 53
2011-12-01 09:23:14 51°21.145 3°2.358 8 15 10.7 100980 53
2011-12-01 09:23:19 51°21.15 3°2.382 7.3 13 10.7 100980 53
2011-12-01 09:23:24 51°21.157 3°2.406 9.4 10 10.7 100980 53
2011-12-01 09:23:29 51°21.162 3°2.43 7.8 12 10.7 100980 53
2011-12-01 09:23:34 51°21.168 3°2.455 9.1 12 10.7 100980 53
2011-12-01 09:23:39 51°21.174 3°2.479 8.8 11 10.7 100980 52
2011-12-01 09:23:44 51°21.179 3°2.503 9.3 14 10.7 100980 52
2011-12-01 09:23:49 51°21.185 3°2.526 8.1 15 10.7 100990 52
2011-12-01 09:23:54 51°21.19 3°2.551 8.7 11 10.7 100990 52
2011-12-01 09:23:59 51°21.196 3°2.575 8.9 15 10.7 100990 53
2011-12-01 09:24:04 51°21.203 3°2.599 8.3 10 10.7 100990 53
2011-12-01 09:24:09 51°21.209 3°2.622 8.1 9 10.7 100980 52
2011-12-01 09:24:14 51°21.215 3°2.646 7.8 13 10.7 100980 52
2011-12-01 09:24:19 51°21.222 3°2.67 7.1 16 10.7 100980 53
2011-12-01 09:24:24 51°21.229 3°2.693 8.1 13 10.7 100980 53
2011-12-01 09:24:29 51°21.234 3°2.717 8.7 14 10.7 100980 52
2011-12-01 09:24:34 51°21.241 3°2.74 8.2 8 10.7 100980 52
2011-12-01 09:24:39 51°21.248 3°2.762 7.8 18 10.7 100980 52
2011-12-01 09:24:44 51°21.253 3°2.786 7.2 13 10.7 100980 52
2011-12-01 09:24:49 51°21.261 3°2.81 7.7 13 10.6 100980 52
2011-12-01 09:24:54 51°21.268 3°2.833 9.1 18 10.6 100980 52
2011-12-01 09:24:59 51°21.274 3°2.856 9.4 18 10.6 100990 53
2011-12-01 09:25:04 51°21.282 3°2.879 8.5 21 10.6 100990 53
2011-12-01 09:25:09 51°21.288 3°2.901 7.8 15 10.6 100990 52
2011-12-01 09:25:14 51°21.295 3°2.925 6.9 15 10.6 100990 52
2011-12-01 09:25:19 51°21.302 3°2.949 8.6 14 10.6 100980 51
2011-12-01 09:25:24 51°21.31 3°2.971 6.9 18 10.6 100980 51
2011-12-01 09:25:29 51°21.316 3°2.994 7.8 17 10.6 100980 53
2011-12-01 09:25:34 51°21.324 3°3.016 8.5 19 10.6 100980 53
2011-12-01 09:25:39 51°21.332 3°3.039 6.8 14 10.6 100980 52
2011-12-01 09:25:44 51°21.339 3°3.061 6.4 17 10.6 100980 52
2011-12-01 09:25:49 51°21.347 3°3.084 7.6 15 10.6 100980 53
2011-12-01 09:25:54 51°21.354 3°3.107 7.5 12 10.6 100980 53
2011-12-01 09:25:59 51°21.361 3°3.129 7 20 10.6 100980 53
2011-12-01 09:26:03 51°21.367 3°3.148 6.9 15 10.6 100980 53
2011-12-01 09:26:09 51°21.376 3°3.175 6.7 18 10.6 100990 52
2011-12-01 09:26:14 51°21.383 3°3.198 7.5 16 10.6 100990 52
2011-12-01 09:26:19 51°21.39 3°3.22 9 17 10.6 100980 53
2011-12-01 09:26:24 51°21.396 3°3.243 7.6 16 10.6 100980 53
2011-12-01 09:26:29 51°21.404 3°3.266 7.1 14 10.6 100990 52
2011-12-01 09:26:34 51°21.411 3°3.289 8.5 18 10.6 100990 52
2011-12-01 09:26:39 51°21.417 3°3.312 8.1 18 10.6 100990 53
2011-12-01 09:26:44 51°21.424 3°3.336 7.2 14 10.6 100990 53
2011-12-01 09:26:49 51°21.43 3°3.359 8.3 12 10.6 100980 52
2011-12-01 09:26:54 51°21.436 3°3.383 6.7 15 10.6 100980 52
2011-12-01 09:26:59 51°21.442 3°3.407 8.4 10 10.6 100990 53
2011-12-01 09:27:04 51°21.448 3°3.43 8.3 14 10.6 100990 53
2011-12-01 09:27:09 51°21.454 3°3.454 8.3 16 10.6 100990 53
2011-12-01 09:27:14 51°21.46 3°3.478 8.2 16 10.6 100990 53
2011-12-01 09:27:19 51°21.465 3°3.502 8.8 15 10.6 100990 53
2011-12-01 09:27:24 51°21.472 3°3.526 7.3 14 10.6 100990 53
2011-12-01 09:27:29 51°21.477 3°3.55 9.1 10 10.6 100980 53
2011-12-01 09:27:34 51°21.483 3°3.573 8 17 10.6 100980 53
2011-12-01 09:27:39 51°21.488 3°3.597 7.7 10 10.6 100980 53
2011-12-01 09:27:44 51°21.495 3°3.621 7.9 17 10.6 100980 53
2011-12-01 09:27:49 51°21.502 3°3.644 9.6 10 10.6 100990 53
2011-12-01 09:27:54 51°21.507 3°3.667 7.5 12 10.6 100990 53
2011-12-01 09:27:59 51°21.513 3°3.691 9.3 15 10.6 100980 52
2011-12-01 09:28:04 51°21.521 3°3.714 7.4 17 10.6 100980 52
2011-12-01 09:28:09 51°21.527 3°3.737 7.1 12 10.6 100980 53
2011-12-01 09:28:14 51°21.534 3°3.759 7.7 14 10.6 100980 53
2011-12-01 09:28:19 51°21.54 3°3.783 8.2 17 10.6 100980 53
2011-12-01 09:28:24 51°21.548 3°3.805 7.6 14 10.6 100980 53
2011-12-01 09:28:29 51°21.554 3°3.827 7.6 15 10.6 100980 53
2011-12-01 09:28:34 51°21.561 3°3.85 7.1 12 10.6 100980 53
2011-12-01 09:28:39 51°21.567 3°3.874 7.7 15 10.6 100990 53
2011-12-01 09:28:44 51°21.572 3°3.897 7.5 17 10.6 100990 53
2011-12-01 09:28:49 51°21.579 3°3.92 6.9 14 10.6 100980 52
2011-12-01 09:28:54 51°21.584 3°3.944 9.2 13 10.6 100980 52
2011-12-01 09:28:59 51°21.59 3°3.968 8.4 8 10.5 100980 52
2011-12-01 09:29:04 51°21.595 3°3.992 8.6 18 10.5 100980 52
2011-12-01 09:29:09 51°21.602 3°4.015 8.3 14 10.6 100990 54
2011-12-01 09:29:14 51°21.608 3°4.038 7.9 18 10.6 100990 54
2011-12-01 09:29:19 51°21.614 3°4.061 7.5 14 10.6 100990 53
2011-12-01 09:29:24 51°21.62 3°4.085 6.8 16 10.6 100990 53
2011-12-01 09:29:29 51°21.627 3°4.108 6.2 17 10.5 100990 53
2011-12-01 09:29:34 51°21.634 3°4.131 7.6 13 10.5 100990 53
2011-12-01 09:29:39 51°21.639 3°4.154 7.7 16 10.5 100980 53
2011-12-01 09:29:44 51°21.646 3°4.177 7.1 17 10.5 100980 53
2011-12-01 09:29:49 51°21.653 3°4.201 7.5 17 10.5 100990 53
2011-12-01 09:29:54 51°21.66 3°4.222 7.4 15 10.5 100990 53
2011-12-01 09:29:59 51°21.666 3°4.246 7.2 17 10.5 100990 52
2011-12-01 09:30:04 51°21.673 3°4.269 7.3 13 10.5 100990 52
2011-12-01 09:30:09 51°21.679 3°4.292 6.2 19 10.5 100980 53
2011-12-01 09:30:14 51°21.685 3°4.315 7.8 16 10.5 100980 53
2011-12-01 09:30:19 51°21.69 3°4.339 7.7 17 10.5 100990 52
2011-12-01 09:30:24 51°21.696 3°4.362 9.3 14 10.5 100990 52
2011-12-01 09:30:29 51°21.702 3°4.385 8.3 17 10.5 100980 54
2011-12-01 09:30:34 51°21.708 3°4.408 9.1 16 10.5 100980 54
2011-12-01 09:30:39 51°21.713 3°4.432 8.5 16 10.5 100990 52
2011-12-01 09:30:44 51°21.718 3°4.456 7.9 13 10.5 100990 52
2011-12-01 09:30:49 51°21.723 3°4.479 8.4 13 10.5 100980 53
2011-12-01 09:30:55 51°21.728 3°4.509 9.4 11 10.5 100980 53
2011-12-01 09:30:59 51°21.733 3°4.528 7.6 11 10.5 100980 53
2011-12-01 09:31:04 51°21.737 3°4.552 9 18 10.5 100980 53
2011-12-01 09:31:09 51°21.742 3°4.575 8 16 10.5 100980 52
2011-12-01 09:31:14 51°21.748 3°4.599 5.4 14 10.5 100980 52
2011-12-01 09:31:19 51°21.754 3°4.623 6.5 16 10.5 100990 54
2011-12-01 09:31:24 51°21.759 3°4.646 7.6 14 10.5 100990 54
2011-12-01 09:31:29 51°21.764 3°4.669 8 15 10.5 100970 52
2011-12-01 09:31:34 51°21.769 3°4.693 8.7 14 10.5 100970 52
2011-12-01 09:31:39 51°21.775 3°4.717 7.6 11 10.5 100980 53
2011-12-01 09:31:44 51°21.78 3°4.741 3.5 9 10.5 100980 53
2011-12-01 09:31:49 51°21.786 3°4.765 7.2 13 10.5 100980 53
2011-12-01 09:31:54 51°21.792 3°4.789 4.9 14 10.5 100980 53
2011-12-01 09:31:59 51°21.797 3°4.813 5.7 13 10.5 100980 54
2011-12-01 09:32:04 51°21.803 3°4.836 8 14 10.5 100980 54
2011-12-01 09:32:09 51°21.808 3°4.861 9.2 16 10.5 100990 53
2011-12-01 09:32:14 51°21.814 3°4.885 8 13 10.5 100990 53
2011-12-01 09:32:19 51°21.819 3°4.909 7.7 13 10.5 100980 52
2011-12-01 09:32:24 51°21.822 3°4.933 5.1 7 10.5 100980 52
2011-12-01 09:32:29 51°21.828 3°4.957 7.9 15 10.5 100980 53
2011-12-01 09:32:34 51°21.833 3°4.981 8 10 10.5 100980 53
2011-12-01 09:32:39 51°21.839 3°5.004 8.2 13 10.5 100990 53
2011-12-01 09:32:43 51°21.842 3°5.023 8.4 12 10.5 100990 53
2011-12-01 09:32:49 51°21.849 3°5.052 8.4 15 10.5 100980 54
2011-12-01 09:32:54 51°21.853 3°5.075 8.2 11 10.5 100980 54
2011-12-01 09:32:59 51°21.858 3°5.099 7.8 14 10.5 100980 54
2011-12-01 09:33:04 51°21.862 3°5.123 7.2 7 10.5 100980 54
2011-12-01 09:33:09 51°21.867 3°5.147 7.8 9 10.5 100980 53
2011-12-01 09:33:14 51°21.871 3°5.17 8.5 8 10.5 100980 53
2011-12-01 09:33:19 51°21.875 3°5.194 6.7 6 10.5 100980 53
2011-12-01 09:33:24 51°21.879 3°5.218 8.2 14 10.5 100980 53
2011-12-01 09:33:29 51°21.884 3°5.243 8.6 11 10.5 100980 53
2011-12-01 09:33:35 51°21.891 3°5.271 7.6 14 10.5 100980 53
2011-12-01 09:33:39 51°21.894 3°5.288 8.8 12 10.5 100970 53
2011-12-01 09:33:44 51°21.899 3°5.312 7.4 15 10.5 100970 53
2011-12-01 09:33:49 51°21.905 3°5.336 6.9 12 10.5 100980 53
2011-12-01 09:33:54 51°21.91 3°5.359 8.3 17 10.5 100980 53
2011-12-01 09:33:59 51°21.914 3°5.382 8 10 10.5 100970 53
2011-12-01 09:34:04 51°21.92 3°5.406 8 13 10.5 100970 53
2011-12-01 09:34:09 51°21.926 3°5.43 8 10 10.5 100980 53
2011-12-01 09:34:14 51°21.931 3°5.452 9.7 14 10.5 100980 53
2011-12-01 09:34:19 51°21.935 3°5.476 8.2 8 10.5 100970 53
2011-12-01 09:34:24 51°21.941 3°5.499 8.2 15 10.5 100970 53
2011-12-01 09:34:29 51°21.946 3°5.523 9.8 16 10.5 100990 53
2011-12-01 09:34:34 51°21.952 3°5.546 8 12 10.5 100990 53
2011-12-01 09:34:39 51°21.957 3°5.569 8.4 13 10.5 100980 54
2011-12-01 09:34:44 51°21.961 3°5.593 8.2 11 10.5 100980 54
2011-12-01 09:34:49 51°21.967 3°5.616 7.8 18 10.5 100980 53
2011-12-01 09:34:54 51°21.972 3°5.639 8.5 14 10.5 100980 53
2011-12-01 09:34:59 51°21.976 3°5.662 8 14 10.5 100980 54
2011-12-01 09:35:04 51°21.981 3°5.685 8.9 12 10.5 100980 54
2011-12-01 09:35:09 51°21.986 3°5.709 8 14 10.5 100990 53
2011-12-01 09:35:14 51°21.992 3°5.731 7.3 10 10.5 100990 53
2011-12-01 09:35:19 51°21.996 3°5.755 6.7 12 10.5 100980 53
2011-12-01 09:35:24 51°22.003 3°5.778 9 12 10.5 100980 53
2011-12-01 09:35:29 51°22.007 3°5.801 7.4 12 10.5 100980 53
2011-12-01 09:35:34 51°22.012 3°5.825 8.5 15 10.5 100980 53
2011-12-01 09:35:39 51°22.017 3°5.849 8.4 15 10.5 100980 53
2011-12-01 09:35:44 51°22.022 3°5.872 8.9 13 10.5 100980 53
2011-12-01 09:35:49 51°22.026 3°5.896 7.7 13 10.5 100990 54
2011-12-01 09:35:54 51°22.032 3°5.919 8.6 18 10.5 100990 54
2011-12-01 09:35:59 51°22.036 3°5.942 8.6 11 10.5 100990 52
2011-12-01 09:36:04 51°22.04 3°5.966 7.7 16 10.5 100990 52
2011-12-01 09:36:09 51°22.046 3°5.99 8.1 14 10.5 100980 53
2011-12-01 09:36:14 51°22.05 3°6.013 7.9 16 10.5 100980 53
2011-12-01 09:36:19 51°22.054 3°6.036 8 11 10.5 100980 54
2011-12-01 09:36:24 51°22.059 3°6.06 8.6 9 10.5 100980 54
2011-12-01 09:36:29 51°22.063 3°6.083 8.9 15 10.5 100980 53
2011-12-01 09:36:34 51°22.068 3°6.106 7.3 10 10.5 100980 53
2011-12-01 09:36:39 51°22.072 3°6.129 8.1 13 10.5 100980 52
2011-12-01 09:36:44 51°22.076 3°6.153 7.9 16 10.5 100980 52
2011-12-01 09:36:49 51°22.081 3°6.177 8.1 9 10.5 100980 54
2011-12-01 09:36:54 51°22.086 3°6.2 8 15 10.5 100980 54
2011-12-01 09:36:59 51°22.09 3°6.224 7.2 11 10.5 100990 54
2011-12-01 09:37:04 51°22.095 3°6.248 8.4 14 10.5 100990 54
2011-12-01 09:37:09 51°22.1 3°6.272 8.2 14 10.5 100980 53
2011-12-01 09:37:14 51°22.105 3°6.295 7.3 12 10.5 100980 53
2011-12-01 09:37:19 51°22.11 3°6.318 9 12 10.5 100990 52
2011-12-01 09:37:24 51°22.115 3°6.342 8.5 15 10.5 100990 52
2011-12-01 09:37:29 51°22.121 3°6.365 7.1 15 10.5 100990 53
2011-12-01 09:37:34 51°22.126 3°6.387 7.4 14 10.5 100990 53
2011-12-01 09:37:39 51°22.13 3°6.41 8.1 10 10.6 100990 53
2011-12-01 09:37:44 51°22.136 3°6.434 8.3 16 10.6 100990 53
2011-12-01 09:37:49 51°22.142 3°6.457 8.4 17 10.5 100990 52
2011-12-01 09:37:55 51°22.148 3°6.484 7.4 17 10.5 100990 52
2011-12-01 09:37:59 51°22.153 3°6.503 7.1 15 10.5 100990 54
2011-12-01 09:38:04 51°22.159 3°6.526 8.5 16 10.5 100990 54
2011-12-01 09:38:09 51°22.164 3°6.549 8.6 18 10.5 100980 53
2011-12-01 09:38:14 51°22.17 3°6.571 7.5 18 10.5 100980 53
2011-12-01 09:38:19 51°22.176 3°6.594 7.6 12 10.6 100980 53
2011-12-01 09:38:24 51°22.181 3°6.617 7.8 15 10.6 100980 53
2011-12-01 09:38:29 51°22.186 3°6.64 8 9 10.6 100980 52
2011-12-01 09:38:34 51°22.191 3°6.664 7.1 12 10.6 100980 52
2011-12-01 09:38:39 51°22.197 3°6.687 9.6 12 10.5 100980 53
2011-12-01 09:38:44 51°22.2 3°6.71 6.9 11 10.5 100980 53
2011-12-01 09:38:49 51°22.206 3°6.733 8.3 12 10.6 100980 52
2011-12-01 09:38:54 51°22.209 3°6.757 8.1 11 10.6 100980 52
2011-12-01 09:38:59 51°22.214 3°6.78 7.4 13 10.6 100990 53
2011-12-01 09:39:04 51°22.218 3°6.803 8.6 15 10.6 100990 53
2011-12-01 09:39:09 51°22.222 3°6.827 8.4 15 10.6 100980 53
2011-12-01 09:39:14 51°22.228 3°6.849 8.8 17 10.6 100980 53
2011-12-01 09:39:19 51°22.232 3°6.873 9.3 17 10.6 100980 54
2011-12-01 09:39:24 51°22.238 3°6.895 7 18 10.6 100980 54
2011-12-01 09:39:29 51°22.243 3°6.918 7.4 16 10.6 100970 53
2011-12-01 09:39:34 51°22.248 3°6.941 8 13 10.6 100970 53
2011-12-01 09:39:39 51°22.254 3°6.964 7.3 7 10.6 100980 53
2011-12-01 09:39:44 51°22.259 3°6.987 7 19 10.6 100980 53
2011-12-01 09:39:49 51°22.264 3°7.01 6 18 10.6 100980 53
2011-12-01 09:39:54 51°22.269 3°7.034 6.9 9 10.6 100980 53
2011-12-01 09:39:59 51°22.275 3°7.057 7.7 14 10.6 100980 54
2011-12-01 09:40:04 51°22.279 3°7.08 6.7 16 10.6 100980 54
2011-12-01 09:40:09 51°22.286 3°7.103 6.8 18 10.6 100980 52
2011-12-01 09:40:14 51°22.29 3°7.126 8 12 10.6 100980 52
2011-12-01 09:40:19 51°22.296 3°7.149 9.2 15 10.6 100980 53
2011-12-01 09:40:24 51°22.301 3°7.172 8.3 14 10.6 100980 53